Location: Newark
(51.2625°N, 13.3939°E)
Time: 18:20:52
(UTC+00:00)

deb Explorer IX - Pass Details

Date: 25 November 2019
Orbit: 545 x 1105 km, 38.8° (Epoch: 08 December)

Event Time Altitude Azimuth Distance (km) Brightness Sun altitude
Rises 21:51:40 0° 226° (SW) 3,907 - -57.2°
Reaches altitude 10° 21:55:03 10° 213° (SSW) 2,926 - -57.5°
Maximum altitude 22:00:27 23° 165° (SSE) 2,042 - -57.8°
Drops below altitude 10° 22:05:31 10° 115° (ESE) 2,732 - -58.2°
Sets 22:08:34 0° 102° (ESE) 3,590 - -58.3°
